Location: Bacharowice
(49.9333°N, 19.5833°E)
Time: 11:48:38
(UTC+00:00)

Cosmos 1975 - Pass Details

Date: 11 May 2021
Orbit: 541 x 560 km, 82.5° (Epoch: 22 June)

Event Time Altitude Azimuth Distance (km) Brightness Sun altitude
Rises 21:17:30 0° 354° (N) 2,718 7.8 -19.7°
Reaches altitude 10° 21:19:45 10° 1° (N) 1,819 6.5 -19.8°
Maximum altitude 21:23:37 46° 76° (ENE) 733 3.3 -20.0°
Enters shadow 21:24:13 42° 104° (ESE) 779 3.3 -20.0°
